Погода в Ленинградской

Россия / Краснодарский край     46°19′13″N   39°23′34″E
темп.,
°C
ветер,
м/с
пор.,
м/с
влажн.,
%
обл.,
%
осадки,
мм/ч
давл.,
гПа
погр.,
м
20 мая, пт
пт2000:00+10зюз6109698 0.4 1015468
03:00+11зсз61194100 0.7 1016534
06:00+11зсз4109299 0.0 1018309
09:00+16зсз586890 0.1 1018703
12:00+17з696892 1.6 10181687
15:00+19зсз81049100 2.0 10172594
18:00+15з7117418 0.5 1017449
21:00+12зюз488493 0.6 1018143
21 мая, сб
сб2100:00+11зюз498997 0.0 1018143
03:00+14зюз61478100 0.1 1017498
06:00+13юз71492100 0.6 1017579
09:00+17юз9157581 0.6 10161112
12:00+21зюз101759100 0.0 10141773
15:00+18зюз111858100 0.0 10131146
18:00+17юз111960100 0.0 1012949
21:00+15юз101955100 0.0 1012760
22 мая, вс
вс2200:00+14зюз9195774 0.0 1010725
03:00+15зюз9185394 0.0 1008727
06:00+14зюз81765100 0.0 1007658
09:00+15зюз81574100 0.1 1006824
12:00+13зюз61193100 1.1 1005434
15:00+13зюз51196100 3.8 1005551
18:00+15зюз51089100 0.1 1004556
21:00+13юз499598 0.3 1003272
23 мая, пн
пн2300:00+12зюз379288 0.4 1003172
03:00+11юз399715 1.6 1002239
06:00+11зюз4995100 0.1 1003258
09:00+15зюз677782 0.5 1003980
12:00+15з676690 0.5 10041236
15:00+17зсз666482 0.8 10041422
18:00+13сз478695 0.8 1004465
21:00+11с4894100 1.8 1006285
24 мая, вт
вт2400:00+11с3693100 0.1 1008211
03:00+8с349414 0.1 100966
06:00+10с2492100 0.0 1010162
09:00+11ссв3587100 0.1 1012325
12:00+15св456482 0.1 1013995
15:00+16с345873 0.4 10131457
18:00+15ссз23659 0.6 1014727
21:00+10с33815 0.8 101628